Regional Weather Roundup
Issued by NWS Newport/Morehead, NC

Current Version | Previous Version | Graphics & Text | Print | Product List | Glossary Off
Versions: 1 2 3 4 5 6 7 8 9 10 11 12 13 14 15 16 17 18 19 20 21 22 23 24 25 26 27 28 29 30 31 32 33 34 35 36 37 38 39 40 41 42 43 44 45 46 47 48 49 50

000
ASUS42 KMHX 290522
RWRMHX
WEATHER ROUNDUP FOR EASTERN NORTH CAROLINA
NATIONAL WEATHER SERVICE NEWPORT/MOREHEAD CITY NC
1200 AM EST MON DEC 29 2014

NOTE: "FAIR" INDICATES FEW OR NO CLOUDS BELOW 12,000 FEET
WITH NO SIGNIFICANT WEATHER AND/OR OBSTRUCTIONS TO VISIBILITY

NCZ015>017-031-032-045>047-102-103-290600-
NORTH COAST

CITY           SKY/WX    TMP DP  RH WIND       PRES   REMARKS
EDENTON        CLOUDY    56  55  97 CALM      30.05F FOG
ELIZABETH CITY CLOUDY    61  57  88 CALM      30.04F FOG
KITTY HAWK     CLOUDY    57  57 100 CALM      30.03F FOG
MANTEO         CLOUDY    57  55  94 NW5       30.05S

$$

NCZ045>047-081-094-103-104-290600-
CENTRAL COAST

CITY           SKY/WX    TMP DP  RH WIND       PRES   REMARKS
FRISCO         CLOUDY    57  56  96 CALM      30.05F
SWANQUARTER      N/A     57 N/A N/A S2        30.00F

$$

NCZ095-097-098-100-101-290600-
SOUTHERN COAST

CITY           SKY/WX    TMP DP  RH WIND       PRES   REMARKS
BEAUFORT       MOCLDY    55  55 100 CALM      30.06S FOG
CEDAR ISLAND     N/A     57 N/A N/A CALM      30.09S
JACKSONVILLE   CLOUDY    60  58  92 CALM      30.06R
PINEY ISLAND   CLOUDY    62  57  83 SE3       30.05S
WILMINGTON     FOG       59  59 100 CALM      30.06F VSB 1/4


$$

NCZ011>013-027>030-043-044-078>080-089-090>093-098-290600-
COASTAL PLAIN

CITY           SKY/WX    TMP DP  RH WIND       PRES   REMARKS
AHOSKIE        FOG       55  54  97 CALM      30.05F VSB 1/4
CLINTON        CLOUDY    60  60 100 CALM      30.07S FOG
ELIZABETHTOWN  CLOUDY    63  61  95 CALM      30.07S
GOLDSBORO      FOG       59  59 100 CALM      30.05S VSB 3/4
GREENVILLE     FOG       55  55 100 CALM      30.07F VSB 1/2
HAVELOCK       CLOUDY    60  57  89 CALM      30.07S
KENANSVILLE    FOG       60  59  98 CALM      30.07S VSB 3/4
KINSTON        CLOUDY    60  59  99 CALM      30.07S FOG
NEW BERN       CLOUDY    62  58  86 CALM      30.08R
RICHLANDS      CLOUDY    59  57  94 CALM      30.07F VSB 1/2
ROCKY MOUNT    CLOUDY    55  54  96 S3        30.06S FOG
WASHINGTON     CLOUDY    58  58  98 CALM      30.06S
WHITEVILLE     CLOUDY    60  59  95 CALM      30.06F

$$

AMZ130-135-150-152-154-156-158-170-250-252-270-ANZ085-086-088-633-658-670-290600-
MARINE OBSERVATIONS

STATION/POSITION TIME  TEMP    WIND        PRES    WAVE   SWELL
                       AIR SEA DIR/SP/G            HT/PER HT/PER
                 (UTC) (F)     (DEG/KT/KT) (MB)    (FT/S) (FT/S)
CHESAPEAKE LIGHT 0500   55     330/ 11/ 11 1017.9
64 E VA BEACH    0500   54 53  220/  2/  4 1016.8    3/13   3/13
DUCK             0500   56 50  260/  5/  5 1016.6
2 E DUCK         0500      49                N/A     2/13   2/13
10 NE DUCK       0500      50                N/A     2/12   2/12
OREGON INLET     0500   54 53  170/  3/  5 1017.1
13E OREGON INLT  0500      56                N/A     2/13   2/13
HATTERAS CG      0500   58 56     CALM     1017.8
DIAMOND BUOY     0500   64                 1017.6    3/13
17 S OCRACOKE    NOT AVBL
CAPE LOOKOUT     0500   60     240/  5/  6 1017.5
BEAUFORT LAB     0500   58 56  220/  2/  3 1016.7
30 SE NEW RIVER  0500   62 60  240/ 10/ 12 1018.4    3/13   2/13
5 SE WRIGHTSVLE  NOT AVBL
225 S CAPE HAT   0415   74 74  210/ 17/ 21 1020.1    4/13   3/13
41 SE CHARLESTON 0500   73 73  210/ 12/ 16 1017.7    3/14   2/14

$$



USA.gov is the U.S. government's official web portal to all federal, state and local government web resources and services.